DELTA 1 DEB, 40759

Orbit data source: Space-Track

DELTA 1 DEB, 40759 is space debris in LEO originally from a launch on Thu, 29 Jul 1976 UTC launched from the Air Force Western Test Range (AFWTR). Debris objects in space refer to the collection of defunct objects orbiting the Earth. Examples of debris include non-operational satellites, rocket bodies, and fragments generated from explosions, collisions, or faulty payload assembly.

Loading next visibility...
DELTA 1 DEB details
Identifier
40759, 1976-077GC
Orbit
LEO
Last TLE update1 week ago
Origin
Flag of USGSFC (US)
ManufacturerUnknown
MissionSpacecraft
Bus & MotorUnknown
MassUnknown
Launch date (UTC)
1976-07-29 (48 years ago)
Launch vehicleUnknown
Launch site
Air Force Western Test Range (AFWTR)
Object type
Payload
Rocket body
Debris
Shape & HBRUnknown
Radar Cross SectionSmall (<0.1 m²)

Expand to show TLE details & history

TLE from 1 week ago
0 DELTA 1 DEB
1 40759U 76077GC  24330.00707821  .00000050  00000-0  44536-3 0  9999
2 40759 102.1458  37.7995 0292061 346.9345  12.4285 12.66411461912952
Epoch: 2024-11-25T00:10Z
Definitive object data (Epoch: 2024-11-25T00:10:11.557Z)
Latitude-0.00001°
Longitude-29.18624°
Altitude1,177.713 km
Speed7.367 km/s
True Right ascension02h 31m 11s
True Declination0° 00' 00"
Sunlit
Object was in full shadow at TLE epoch
Visualization TLE readout
Latitude-77.59382°
Longitude83.88305°
Altitude1,310.921 km
Speed7.254 km/s
Apparent Right ascension18h 05m 22s
Apparent Declination-71° 35' 44"
Sunlit
Object is in daylight
Visualization observer readout
Local Sidereal Time07:13:08
Azimuth170.224° S
Elevation-57.192°
Doppler factor1
Orbital elements
Apogee altitude1,621.136 km
Perigee altitude1,167.141 km
Semi-major axis7,772.275 km
Eccentricity0.0292061
Inclination102.1458°
RAAN37.7995°
Arg. of periapsis346.9345°
True anomaly13.17536°
Mean anomaly12.4285°
Eccentric anomaly12.79921°
Mean motion3.16753 °/min
BSTAR0.00044536
Orbital period113.65 mins
Loading maneuver chart data...
Loading historical data...
Loading historical data...
Loading historical data...
Loading historical data...
Loading historical data...
Loading historical data...
Loading historical data...

DELTA 1 DEB Visibility forecast

Observer location: undefined°, undefined

Span
Click to sort rows by Start time (UTC) header in descending order
Start Az.
Max El. time (UTC)
Max El. Az.
Max El.
End time (UTC)
End Az.
12 mins2024-12-04 16:07:53.174Z49.821° ENE2024-12-04 16:13:53.174Z95.494° ESE21.377°2024-12-04 16:19:53.174Z139.302° SSE
17 mins2024-12-04 17:57:53.174Z15.883° NNE2024-12-04 18:05:53.174Z291.329° WNW44.764°2024-12-04 18:14:53.174Z204.719° SW
10 mins2024-12-04 19:51:53.174Z343.057° N2024-12-04 19:55:53.174Z311.725° NW20.428°2024-12-04 20:01:53.174Z267.816° W
11 mins2024-12-05 03:00:53.174Z99.951° ESE2024-12-05 03:05:53.174Z50.577° ENE24.345°2024-12-05 03:11:53.174Z2.195° NNE
13 mins2024-12-05 04:50:53.174Z175.289° S2024-12-05 04:56:53.174Z275.036° WNW42.507°2024-12-05 05:03:53.174Z336.71° NNW
|